User: anonymous   Login
Location: eljas
(40.1958°N, 6.8661°W)
Time: 16:30:01
(UTC+02:00)
Language:

Okean O Rocket - Orbit

View from above orbital plane
View from above orbital plane
View from above satellite
View from above satellite

Ground track
Ground track

The orbit data is extracted from the following two-line orbital elements,

1 25861U 99039B   16146.88711247  .00000054  00000-0  14773-4 0  9993
2 25861  98.0516 110.9422 0014352 247.5976 165.1832 14.78314034908555
Epoch (UTC): 25 May 2016 21:17:26
Eccentricity: 0.0014352
inclination: 98.0516°
perigee height: 624 km
apogee height: 645 km
right ascension of ascending node: 110.9422°
argument of perigee: 247.5976°
revolutions per day: 14.78314034
mean anomaly at epoch: 165.1832°
orbit number at epoch: 90855

The dashed part of the orbit path shows where the satellite is in the earth's shadow,  

DLR